Marianna, FL

12:52 AM CDT on July 28, 2017 (GMT -0500)
Marianna Municipal

Weather History for KMAI - March, 2013

Change the Weather History Date:

Sunday, March 17, 2013

  Actual Average Record
Temperature  
Mean Temperature 61 °F 60 °F  
Max Temperature 71 °F 73 °F 87 °F (2015)
Min Temperature 51 °F 48 °F 37 °F (2017)
Degree Days  
Heating Degree Days 4    
Month to date heating degree days 194  
Since 1 July heating degree days 1197  
Cooling Degree Days 0    
Month to date cooling degree days 0  
Year to date cooling degree days 59  
Growing Degree Days 10 (Base 50)    
Moisture  
Dew Point 57 °F    
Average Humidity 87    
Maximum Humidity 100    
Minimum Humidity 73    
Precipitation  
Precipitation 0.07 in 0.18 in 0.80 in (2003)
Month to date precipitation 1.39 2.68  
Year to date precipitation 15.26 12.66  
Sea Level Pressure  
Sea Level Pressure 30.01 in    
Wind  
Wind Speed 6 mph (SSE)    
Max Wind Speed 15 mph    
Max Gust Speed 20 mph    
Visibility 9 miles    
Events Rain    
T = Trace of Precipitation, MM = Missing Value Source: NWS Daily Summary

Daily Weather History Graph

Daily Weather History Graph

Search for Another Location

Airport or City:

Trip Planner

Search our weather history database for the weather conditions in past years. The results will help you decide how hot, cold, wet, or windy it might be!

Date:

Astronomy

Mar. 17, 2013 Rise Set
Actual Time 6:47 AM CDT 6:50 PM CDT
Civil Twilight 6:23 AM CDT 7:14 PM CDT
Nautical Twilight 5:55 AM CDT 7:42 PM CDT
Astronomical Twilight 5:27 AM CDT 8:10 PM CDT
Moon 10:21 AM CDT (3/17) No Moon Set
Length of Visible Light 12h 50m
Length of Day
12h 02m
Waxing Crescent, 31% of the Moon is Illuminated
Mar 17
Waxing Crescent
Mar 19
First Quarter
Mar 27
Full
Apr 2
Last Quarter
Apr 10
New

Hourly Weather History & Observations

Time (CDT) Temp. Dew Point Humidity Pressure Visibility Wind Dir Wind Speed Gust Speed Precip Events Conditions
12:53 AM 55.0 °F 52.0 °F 89% 30.04 in 10.0 mi South 3.5 mph - N/A   Clear
1:53 AM 57.0 °F 54.0 °F 89% 30.03 in 10.0 mi South 3.5 mph - N/A   Mostly Cloudy
2:53 AM 57.0 °F 54.0 °F 89% 30.02 in 10.0 mi South 4.6 mph - N/A   Clear
3:53 AM 55.0 °F 53.1 °F 93% 30.01 in 10.0 mi Calm Calm - N/A   Scattered Clouds
4:53 AM 55.0 °F 53.1 °F 93% 30.01 in 10.0 mi Calm Calm - N/A   Clear
5:53 AM 55.0 °F 53.1 °F 93% 30.02 in 9.0 mi Calm Calm - N/A   Clear
6:53 AM 52.0 °F 50.0 °F 93% 30.04 in 10.0 mi Calm Calm - N/A   Clear
7:01 AM 51.8 °F 50.0 °F 94% 30.04 in 10.0 mi Calm Calm - N/A   Scattered Clouds
7:12 AM 53.6 °F 51.8 °F 94% 30.05 in 9.0 mi Calm Calm - N/A   Mostly Cloudy
7:24 AM 53.6 °F 53.6 °F 100% 30.05 in 1.8 mi Calm Calm - N/A   Overcast
7:39 AM 53.6 °F 53.6 °F 100% 30.05 in 0.8 mi Calm Calm - N/A   Overcast
7:46 AM 55.4 °F 53.6 °F 94% 30.06 in 1.8 mi Calm Calm - N/A   Overcast
7:53 AM 55.9 °F 55.0 °F 97% 30.06 in 2.5 mi South 3.5 mph - N/A   Mostly Cloudy
8:00 AM 57.2 °F 55.4 °F 94% 30.06 in 6.0 mi SSE 3.5 mph - N/A   Mostly Cloudy
8:53 AM 62.1 °F 57.9 °F 86% 30.05 in 10.0 mi South 6.9 mph - N/A   Clear
9:53 AM 68.0 °F 60.1 °F 76% 30.06 in 10.0 mi South 12.7 mph - N/A   Mostly Cloudy
10:53 AM 70.0 °F 60.1 °F 71% 30.05 in 10.0 mi South 10.4 mph - N/A   Partly Cloudy
11:53 AM 70.0 °F 60.1 °F 71% 30.04 in 10.0 mi South 6.9 mph - N/A   Clear
12:53 PM 69.1 °F 60.1 °F 73% 30.03 in 10.0 mi South 10.4 mph - 0.00 in Rain Light Rain
1:53 PM 69.1 °F 60.1 °F 73% 29.99 in 10.0 mi South 6.9 mph - 0.00 in   Overcast
2:40 PM 68.0 °F 60.8 °F 78% 29.99 in 10.0 mi South 10.4 mph - 0.00 in Rain Light Rain
2:53 PM 68.0 °F 61.0 °F 78% 29.98 in 10.0 mi South 9.2 mph - 0.00 in Rain Light Rain
3:50 PM 64.4 °F 62.6 °F 94% 29.98 in 5.0 mi SSE 11.5 mph - 0.04 in Rain Rain
3:53 PM 64.9 °F 62.1 °F 90% 29.97 in 5.0 mi SSE 10.4 mph 19.6 mph 0.04 in Rain Rain
4:53 PM 64.0 °F 62.1 °F 93% 29.97 in 10.0 mi SSE 6.9 mph - 0.03 in Rain Light Rain
5:53 PM 63.0 °F 60.1 °F 90% 29.97 in 10.0 mi South 4.6 mph - 0.00 in   Overcast
6:15 PM 62.6 °F 60.8 °F 94% 29.98 in 10.0 mi SSE 3.5 mph - N/A   Overcast
6:40 PM 62.6 °F 60.8 °F 94% 29.98 in 10.0 mi SSE 5.8 mph - N/A   Overcast
6:53 PM 62.1 °F 60.1 °F 93% 29.98 in 10.0 mi SSE 4.6 mph - N/A   Overcast
7:04 PM 62.6 °F 60.8 °F 94% 29.98 in 10.0 mi SE 3.5 mph - N/A   Overcast
7:20 PM 62.6 °F 60.8 °F 94% 29.97 in 10.0 mi Variable 4.6 mph - N/A   Overcast
7:53 PM 62.1 °F 60.1 °F 93% 29.98 in 10.0 mi SSE 3.5 mph - N/A   Overcast
8:53 PM 62.1 °F 60.1 °F 93% 29.99 in 10.0 mi SSE 3.5 mph - N/A   Overcast
9:53 PM 62.1 °F 59.0 °F 90% 29.99 in 10.0 mi SSE 6.9 mph - N/A   Overcast
10:53 PM 61.0 °F 59.0 °F 93% 29.98 in 10.0 mi SSE 8.1 mph - N/A   Overcast
11:53 PM 61.0 °F 59.0 °F 93% 29.97 in 10.0 mi South 6.9 mph - N/A   Overcast